{"data":{"norad_id":63744,"epoch":"2026-09-21T09:29:44.088288Z","epoch_age_seconds":127417,"freshness":"FRESH","line1":"1 63744U 25088W   26264.39564917  .00000759  00000+0  12856-3 0  9996","line2":"2 63744  51.9035 310.1764 0000210  45.2600 314.8380 14.79931738 76531","mean_motion":14.79931738,"eccentricity":2.1e-5,"inclination_deg":51.9035,"raan_deg":310.1764,"arg_perigee_deg":45.26,"mean_anomaly_deg":314.838,"bstar":0.00012856,"rev_number":7653,"period_min":97.301785144904,"perigee_km":629.39245179023,"apogee_km":629.68677420797,"semimajor_km":7007.6766129991,"source":"CELESTRAK","updated_at":"2026-09-22T09:00:29.321231Z"}}